Weather History for Port Angeles, WA

Change the Weather History Date:

Thursday, December 5, 2013

  Actual Average Record
Temperature  
Mean Temperature 29 °F -  
Max Temperature 33 °F 46 °F 53 °F (1979)
Min Temperature 25 °F 34 °F 22 °F (1956)
Degree Days  
Heating Degree Days 36    
Moisture  
Dew Point 22 °F    
Average Humidity 74    
Maximum Humidity 86    
Minimum Humidity 58    
Precipitation  
Precipitation 0.00 in - - ()
Sea Level Pressure  
Sea Level Pressure 30.24 in    
Wind  
Wind Speed 4 mph (ESE)    
Max Wind Speed 9 mph    
Max Gust Speed -    
Visibility 8 miles    
Events Snow    
Averages and records for this station are not official NWS values.
T = Trace of Precipitation, MM = Missing Value Source: NWS Daily Summary

Daily Weather History Graph

Daily Weather History Graph

Search for Another Location

Airport:

Trip Planner

Search our weather history database for the weather conditions in past years. The results will help you decide how hot, cold, wet, or windy it might be!

Date:

Astronomy

Dec. 05, 2013 Rise Set
Actual Time 7:48 AM PST 4:21 PM PST
Civil Twilight 7:12 AM PST 4:56 PM PST
Nautical Twilight 6:33 AM PST 5:36 PM PST
Astronomical Twilight 5:55 AM PST 6:13 PM PST
Moon 10:06 AM PST (12/5) 7:56 PM PST (12/5)
Length of Visible Light 9h 44m
Length of Day
8h 32m
Waxing Crescent, 11% of the Moon is Illuminated
Dec 5
Waxing Crescent
Dec 9
First Quarter
Dec 17
Full
Dec 25
Last Quarter
Jan 1
New

Hourly Weather History & Observations

Time (PST) Temp. Windchill Dew Point Humidity Pressure Visibility Wind Dir Wind Speed Gust Speed Precip Events Conditions
12:53 AM 25.0 °F - 15.1 °F 66% 30.32 in 10.0 mi North - - N/A   Clear
1:53 AM 25.0 °F - 15.1 °F 66% 30.32 in 10.0 mi North - - N/A   Clear
2:53 AM 25.0 °F - 15.1 °F 66% 30.31 in 10.0 mi North - - N/A   Clear
3:53 AM 25.0 °F - 15.1 °F 66% 30.30 in 10.0 mi North - - N/A   Clear
4:53 AM 26.1 °F - 15.1 °F 63% 30.28 in 10.0 mi North - - N/A   Clear
5:53 AM 26.1 °F - 15.1 °F 63% 30.27 in 10.0 mi North - - N/A   Clear
6:53 AM 27.0 °F - 15.1 °F 61% 30.26 in 10.0 mi North - - N/A   Scattered Clouds
7:53 AM 28.0 °F - 15.1 °F 58% 30.26 in 10.0 mi North - - N/A   Overcast
8:53 AM 28.9 °F - 16.0 °F 58% 30.27 in 10.0 mi North - - N/A   Overcast
9:53 AM 30.0 °F - 21.0 °F 69% 30.28 in 3.0 mi North - - 0.00 in   Haze
10:00 AM 30.0 °F - 21.9 °F 72% 30.27 in 2.5 mi North - - 0.00 in Snow Light Snow
10:11 AM 30.9 °F - 24.1 °F 76% 30.26 in 4.0 mi Calm Calm - 0.00 in Snow Light Snow
10:53 AM 32.0 °F - 24.1 °F 73% 30.27 in 10.0 mi North - - 0.00 in   Overcast
11:53 AM 33.1 °F - 25.0 °F 72% 30.25 in 10.0 mi Calm Calm - N/A   Overcast
12:53 PM 33.1 °F 27.7 °F 25.0 °F 72% 30.24 in 10.0 mi East 5.8 mph - N/A   Overcast
1:53 PM 33.1 °F 27.7 °F 27.0 °F 78% 30.23 in 9.0 mi East 5.8 mph - 0.00 in   Overcast
2:53 PM 32.0 °F 24.2 °F 26.1 °F 79% 30.22 in 10.0 mi ESE 9.2 mph - N/A   Overcast
3:22 PM 30.9 °F 24.3 °F 26.1 °F 82% 30.20 in 2.5 mi East 6.9 mph - 0.00 in Snow Light Snow
3:42 PM 30.9 °F 23.5 °F 27.0 °F 85% 30.20 in 3.0 mi East 8.1 mph - 0.00 in Snow Light Snow
3:51 PM 30.2 °F 21.9 °F 26.6 °F 86% 30.20 in 2.5 mi East 9.2 mph - 0.00 in Snow Light Snow
3:53 PM 30.9 °F 24.3 °F 27.0 °F 85% 30.22 in 2.5 mi East 6.9 mph - 0.00 in Snow Light Snow
4:03 PM 30.9 °F 23.5 °F 27.0 °F 85% 30.20 in 4.0 mi East 8.1 mph - 0.00 in Snow Light Snow
4:53 PM 30.0 °F 23.2 °F 26.1 °F 85% 30.21 in 10.0 mi ESE 6.9 mph - 0.00 in   Overcast
5:53 PM 28.9 °F 22.8 °F 25.0 °F 85% 30.20 in 10.0 mi SE 5.8 mph - N/A   Overcast
6:53 PM 28.9 °F - 24.1 °F 82% 30.20 in 10.0 mi North - - N/A   Overcast
7:53 PM 28.9 °F - 24.1 °F 82% 30.19 in 10.0 mi North - - N/A   Overcast
8:53 PM 30.0 °F - 24.1 °F 79% 30.19 in 10.0 mi North - - N/A   Overcast
9:53 PM 30.0 °F - 24.1 °F 79% 30.20 in 10.0 mi North - - N/A   Overcast
10:53 PM 30.0 °F - 23.0 °F 75% 30.20 in 10.0 mi North - - N/A   Overcast
11:53 PM 28.9 °F - 23.0 °F 78% 30.19 in 10.0 mi North - - N/A   Overcast